Tracking 18945 objects as of 21-Jan-2018
HD Live streaming from Space Station
objects crossing your sky now

FLOCK 2K 23

Track FLOCK 2K 23 now!
10-day predictions
FLOCK 2K 23 is classified as:


NORAD ID: 42859
Int'l Code: 2017-042AL
Perigee: 460.7 km
Apogee: 473.0 km
Inclination: 97.0 °
Period: 93.8 minutes
Semi major axis: 6837 km
RCS: Unknown
Launch date: July 14, 2017
Source: United States (US)
Launch site: TYURATAM MISSILE AND SPACE COMPLEX (TTMTR)
aabbcc
Your satellite tracking list
Your tracking list is empty




NASA's NSSDC Master Catalog

Two Line Element Set (TLE):
1 42859U 17042AL  18020.36789130 +.00008071 +00000-0 +23654-3 0  9999
2 42859 096.9936 284.4166 0008956 293.4858 066.5445 15.35407844028944
Source of the keplerian elements: AFSPC